Radiation Dose at Monitoring Post of Fukushima Daini Nuclear Power Station
Date,Time,MP-1(microSv/h),MP-2(microSv/h),MP-3(microSv/h),MP-4(microSv/h),MP-5(microSv/h),MP-6(microSv/h),MP-7(microSv/h),Wind Direction,Wind Velocity(m/s),Rain
2018/09/01,00:00,0.311,0.193,0.313,0.299,0.284,0.155,0.094,west,2.7,No
2018/09/01,00:10,0.311,0.191,0.314,0.303,0.282,0.153,0.095,west,2.4,No
2018/09/01,00:20,0.310,0.191,0.311,0.299,0.280,0.154,0.095,west,3.4,No
2018/09/01,00:30,0.312,0.192,0.313,0.300,0.285,0.155,0.094,west-southwest,3.2,No
2018/09/01,00:40,0.310,0.191,0.313,0.301,0.282,0.154,0.095,west-northwest,1.3,No
2018/09/01,00:50,0.311,0.193,0.310,0.299,0.282,0.155,0.094,north,1.2,No
2018/09/01,01:00,0.314,0.193,0.314,0.300,0.285,0.155,0.095,north,2.4,No
2018/09/01,01:10,0.311,0.192,0.313,0.303,0.282,0.154,0.095,north,5.7,No
2018/09/01,01:20,0.310,0.194,0.311,0.300,0.281,0.156,0.095,north,7.4,No
2018/09/01,01:30,0.312,0.193,0.314,0.301,0.286,0.155,0.095,north,7.3,No
2018/09/01,01:40,0.310,0.191,0.315,0.303,0.285,0.155,0.095,north,4.8,No
2018/09/01,01:50,0.312,0.192,0.312,0.300,0.282,0.156,0.095,north,2.7,No
2018/09/01,02:00,0.314,0.193,0.315,0.301,0.284,0.155,0.095,north,3.5,No
2018/09/01,02:10,0.312,0.192,0.314,0.303,0.285,0.154,0.096,north,4.1,Yes
2018/09/01,02:20,0.310,0.195,0.312,0.301,0.282,0.156,0.094,north,4.7,Yes
2018/09/01,02:30,0.313,0.193,0.316,0.299,0.284,0.155,0.094,north,4.6,No
2018/09/01,02:40,0.312,0.192,0.313,0.303,0.285,0.154,0.095,north-northeast,4.1,No
2018/09/01,02:50,0.311,0.193,0.311,0.301,0.281,0.155,0.095,north,4.3,No
2018/09/01,03:00,0.314,0.192,0.313,0.300,0.282,0.155,0.094,north-northeast,3.8,No
2018/09/01,03:10,0.312,0.191,0.314,0.303,0.285,0.154,0.095,north,4.3,No
2018/09/01,03:20,0.310,0.193,0.311,0.301,0.281,0.155,0.095,north,3.5,No
2018/09/01,03:30,0.314,0.191,0.314,0.299,0.283,0.155,0.094,north,3.9,No
2018/09/01,03:40,0.312,0.192,0.314,0.303,0.285,0.154,0.096,north,4.3,No
2018/09/01,03:50,0.310,0.193,0.310,0.301,0.283,0.154,0.094,north-northwest,3.5,No
2018/09/01,04:00,0.314,0.191,0.315,0.301,0.282,0.155,0.094,north,3.0,No
2018/09/01,04:10,0.313,0.192,0.313,0.303,0.284,0.154,0.095,north,3.4,No
2018/09/01,04:20,0.310,0.193,0.311,0.300,0.282,0.155,0.094,north,3.6,Yes
2018/09/01,04:30,0.311,0.191,0.315,0.300,0.282,0.155,0.094,north,2.8,Yes
2018/09/01,04:40,0.312,0.192,0.312,0.303,0.285,0.153,0.094,north-northwest,3.4,Yes
2018/09/01,04:50,0.309,0.192,0.311,0.300,0.282,0.155,0.095,north,3.5,Yes
2018/09/01,05:00,0.312,0.191,0.315,0.300,0.281,0.154,0.095,north,4.4,Yes
2018/09/01,05:10,0.311,0.193,0.311,0.301,0.284,0.154,0.096,north-northwest,2.8,Yes
2018/09/01,05:20,0.309,0.191,0.310,0.299,0.280,0.155,0.095,north,4.9,Yes
2018/09/01,05:30,0.311,0.193,0.312,0.299,0.281,0.154,0.096,-,CALM,Yes
2018/09/01,05:40,0.310,0.192,0.308,0.300,0.283,0.154,0.096,northwest,3.1,Yes
2018/09/01,05:50,0.306,0.190,0.311,0.297,0.280,0.154,0.095,north,3.3,Yes
2018/09/01,06:00,0.310,0.192,0.311,0.299,0.280,0.155,0.096,north,3.3,Yes
2018/09/01,06:10,0.308,0.192,0.308,0.299,0.284,0.154,0.096,northeast,1.2,Yes
2018/09/01,06:20,0.307,0.192,0.310,0.297,0.279,0.155,0.095,east-northeast,1.8,Yes
2018/09/01,06:30,0.309,0.191,0.309,0.300,0.281,0.154,0.096,north-northeast,3.5,Yes
2018/09/01,06:40,0.308,0.190,0.306,0.297,0.282,0.153,0.095,northeast,2.5,Yes
2018/09/01,06:50,0.305,0.191,0.309,0.296,0.280,0.154,0.095,east-northeast,1.6,Yes
2018/09/01,07:00,0.308,0.191,0.307,0.297,0.280,0.154,0.095,northeast,2.4,No
2018/09/01,07:10,0.307,0.190,0.307,0.296,0.283,0.152,0.095,north,3.0,No
2018/09/01,07:20,0.308,0.189,0.310,0.294,0.279,0.151,0.094,north,3.0,No
2018/09/01,07:30,0.309,0.191,0.307,0.299,0.279,0.153,0.094,north,4.9,No
2018/09/01,07:40,0.307,0.189,0.306,0.298,0.282,0.152,0.093,north,4.2,Yes
2018/09/01,07:50,0.306,0.189,0.308,0.295,0.279,0.151,0.093,north,3.4,No
2018/09/01,08:00,0.308,0.190,0.307,0.298,0.279,0.152,0.094,northeast,2.0,No
2018/09/01,08:10,0.306,0.189,0.304,0.296,0.281,0.152,0.094,northeast,2.7,No
2018/09/01,08:20,0.305,0.189,0.309,0.294,0.281,0.152,0.093,north-northeast,3.3,No
2018/09/01,08:30,0.308,0.190,0.306,0.297,0.276,0.152,0.093,north-northeast,4.7,No
2018/09/01,08:40,0.307,0.189,0.306,0.297,0.279,0.153,0.093,north-northeast,4.5,No
2018/09/01,08:50,0.305,0.189,0.309,0.295,0.282,0.152,0.093,north,4.0,No
2018/09/01,09:00,0.307,0.190,0.307,0.296,0.277,0.151,0.093,north,4.4,No
2018/09/01,09:10,0.307,0.190,0.306,0.296,0.276,0.152,0.094,north,3.1,No
2018/09/01,09:20,0.306,0.189,0.308,0.295,0.283,0.151,0.093,north,2.9,No
2018/09/01,09:30,0.308,0.191,0.308,0.297,0.279,0.152,0.093,north,4.4,No
2018/09/01,09:40,0.311,0.190,0.308,0.299,0.278,0.152,0.094,north,5.3,No
2018/09/01,09:50,0.308,0.190,0.309,0.296,0.283,0.152,0.094,north,5.9,No
2018/09/01,10:00,0.307,0.192,0.309,0.298,0.283,0.152,0.094,north-northwest,5.6,No
2018/09/01,10:10,0.311,0.190,0.310,0.298,0.278,0.153,0.094,north,5.7,No
2018/09/01,10:20,0.307,0.190,0.309,0.296,0.284,0.153,0.094,north,5.2,No
2018/09/01,10:30,0.309,0.191,0.307,0.298,0.282,0.152,0.094,north-northwest,5.4,No
2018/09/01,10:40,0.311,0.190,0.310,0.299,0.277,0.153,0.093,north-northwest,5.2,No
2018/09/01,10:50,0.307,0.190,0.308,0.295,0.284,0.154,0.094,north-northwest,5.6,No
2018/09/01,11:00,0.310,0.193,0.308,0.297,0.281,0.152,0.094,north-northwest,5.0,No
2018/09/01,11:10,0.310,0.189,0.309,0.298,0.279,0.152,0.094,north-northwest,4.5,No
2018/09/01,11:20,0.307,0.190,0.307,0.296,0.283,0.153,0.094,north,6.1,No
2018/09/01,11:30,0.309,0.192,0.308,0.300,0.282,0.152,0.093,north-northwest,5.6,No
2018/09/01,11:40,0.310,0.190,0.309,0.298,0.279,0.151,0.094,north-northwest,5.3,No
2018/09/01,11:50,0.307,0.190,0.307,0.297,0.280,0.153,0.094,north-northwest,5.1,No
2018/09/01,12:00,0.310,0.193,0.313,0.300,0.284,0.153,0.094,north,5.1,Yes
2018/09/01,12:10,0.314,0.194,0.312,0.300,0.280,0.154,0.096,north,3.8,Yes
2018/09/01,12:20,0.312,0.197,0.312,0.300,0.284,0.158,0.099,north,4.0,Yes
2018/09/01,12:30,0.315,0.197,0.314,0.302,0.286,0.158,0.098,north,3.6,No
2018/09/01,12:40,0.312,0.196,0.311,0.301,0.282,0.157,0.098,north-northeast,4.2,No
2018/09/01,12:50,0.310,0.196,0.313,0.299,0.284,0.157,0.098,north,4.1,No
2018/09/01,13:00,0.313,0.193,0.311,0.301,0.284,0.157,0.097,north,4.7,No
2018/09/01,13:10,0.312,0.193,0.308,0.298,0.282,0.155,0.096,north,4.3,No
2018/09/01,13:20,0.308,0.193,0.312,0.298,0.281,0.154,0.097,north-northwest,4.4,No
2018/09/01,13:30,0.313,0.191,0.311,0.299,0.283,0.155,0.096,north-northwest,3.3,No
2018/09/01,13:40,0.310,0.190,0.308,0.297,0.280,0.153,0.094,north,2.9,No
2018/09/01,13:50,0.307,0.193,0.311,0.295,0.279,0.152,0.095,north,2.8,No
2018/09/01,14:00,0.308,0.191,0.308,0.299,0.282,0.153,0.093,north,2.6,No
2018/09/01,14:10,0.309,0.190,0.306,0.297,0.283,0.153,0.094,north,1.9,No
2018/09/01,14:20,0.307,0.190,0.309,0.296,0.280,0.152,0.094,north,2.5,No
2018/09/01,14:30,0.306,0.190,0.308,0.299,0.278,0.152,0.094,north,2.4,Yes
2018/09/01,14:40,0.311,0.190,0.305,0.299,0.284,0.154,0.094,north-northwest,2.8,Yes
2018/09/01,14:50,0.310,0.190,0.309,0.297,0.282,0.155,0.095,north-northwest,1.8,Yes
2018/09/01,15:00,0.307,0.193,0.309,0.298,0.280,0.153,0.095,north,3.5,Yes
2018/09/01,15:10,0.314,0.193,0.309,0.302,0.284,0.155,0.095,north-northwest,3.1,Yes
2018/09/01,15:20,0.311,0.193,0.311,0.299,0.285,0.156,0.096,north,5.4,Yes
2018/09/01,15:30,0.309,0.194,0.311,0.300,0.283,0.155,0.096,north,5.9,No
2018/09/01,15:40,0.313,0.192,0.308,0.301,0.281,0.154,0.096,north,4.0,No
2018/09/01,15:50,0.311,0.191,0.311,0.299,0.285,0.156,0.095,north,2.7,No
2018/09/01,16:00,0.308,0.192,0.311,0.298,0.280,0.153,0.096,north-northwest,2.0,Yes
2018/09/01,16:10,0.312,0.193,0.308,0.302,0.281,0.154,0.096,north-northwest,2.7,Yes
2018/09/01,16:20,0.312,0.193,0.313,0.299,0.286,0.156,0.095,north-northwest,2.2,No
2018/09/01,16:30,0.308,0.193,0.311,0.297,0.282,0.155,0.096,north-northwest,1.2,No
2018/09/01,16:40,0.312,0.192,0.307,0.300,0.279,0.153,0.096,north-northeast,1.6,No
2018/09/01,16:50,0.313,0.190,0.311,0.298,0.282,0.152,0.095,north,2.8,No
2018/09/01,17:00,0.310,0.192,0.311,0.296,0.283,0.154,0.094,north,2.4,No
2018/09/01,17:10,0.307,0.191,0.306,0.298,0.279,0.153,0.095,north-northwest,1.6,No
2018/09/01,17:20,0.310,0.190,0.311,0.298,0.280,0.152,0.094,north-northwest,2.5,No
2018/09/01,17:30,0.308,0.192,0.309,0.296,0.284,0.153,0.094,north-northwest,2.9,No
2018/09/01,17:40,0.307,0.190,0.308,0.299,0.281,0.154,0.095,north-northwest,3.9,No
2018/09/01,17:50,0.311,0.189,0.309,0.299,0.281,0.152,0.093,north-northwest,3.4,No
2018/09/01,18:00,0.308,0.192,0.308,0.296,0.283,0.153,0.094,north-northwest,4.7,No
2018/09/01,18:10,0.307,0.189,0.309,0.299,0.281,0.153,0.094,north-northwest,5.5,No
2018/09/01,18:20,0.310,0.190,0.310,0.297,0.281,0.151,0.093,north-northwest,5.5,No
2018/09/01,18:30,0.308,0.190,0.307,0.297,0.283,0.154,0.094,north-northwest,5.1,No
2018/09/01,18:40,0.307,0.190,0.309,0.299,0.280,0.153,0.094,north-northwest,5.7,No
2018/09/01,18:50,0.311,0.191,0.310,0.296,0.280,0.151,0.093,north-northwest,5.8,No
2018/09/01,19:00,0.307,0.190,0.307,0.299,0.282,0.153,0.094,north-northwest,5.8,No
2018/09/01,19:10,0.309,0.190,0.310,0.297,0.279,0.152,0.094,north-northwest,5.9,No
2018/09/01,19:20,0.309,0.191,0.307,0.296,0.284,0.153,0.093,north-northwest,6.3,No
2018/09/01,19:30,0.307,0.189,0.308,0.300,0.281,0.154,0.095,north-northwest,5.6,No
2018/09/01,19:40,0.310,0.191,0.309,0.297,0.280,0.152,0.094,north-northwest,5.5,No
2018/09/01,19:50,0.308,0.190,0.308,0.297,0.284,0.153,0.094,north-northwest,5.7,No
2018/09/01,20:00,0.307,0.190,0.309,0.299,0.280,0.153,0.094,north-northwest,4.9,No
2018/09/01,20:10,0.310,0.190,0.308,0.295,0.283,0.152,0.093,north,4.8,No
2018/09/01,20:20,0.307,0.189,0.310,0.298,0.281,0.154,0.094,north,3.3,No
2018/09/01,20:30,0.310,0.191,0.308,0.297,0.279,0.153,0.094,north,2.9,No
2018/09/01,20:40,0.310,0.189,0.306,0.298,0.282,0.152,0.095,north,4.1,No
2018/09/01,20:50,0.308,0.190,0.310,0.299,0.280,0.154,0.094,north,4.5,No
2018/09/01,21:00,0.309,0.189,0.307,0.296,0.281,0.152,0.094,north,4.5,No
2018/09/01,21:10,0.308,0.189,0.310,0.300,0.280,0.153,0.094,north,4.8,No
2018/09/01,21:20,0.310,0.190,0.308,0.297,0.280,0.153,0.094,north,4.7,No
2018/09/01,21:30,0.308,0.189,0.308,0.298,0.283,0.153,0.094,north,4.4,No
2018/09/01,21:40,0.308,0.190,0.310,0.298,0.280,0.154,0.094,north,5.1,No
2018/09/01,21:50,0.311,0.190,0.308,0.297,0.283,0.154,0.094,north,5.4,No
2018/09/01,22:00,0.306,0.191,0.310,0.299,0.282,0.153,0.093,north,5.4,No
2018/09/01,22:10,0.309,0.190,0.308,0.297,0.279,0.154,0.094,north,4.0,No
2018/09/01,22:20,0.310,0.191,0.311,0.300,0.283,0.152,0.094,north-northeast,5.5,No
2018/09/01,22:30,0.309,0.190,0.310,0.298,0.279,0.155,0.094,north-northeast,3.9,No
2018/09/01,22:40,0.311,0.192,0.308,0.298,0.281,0.153,0.094,north,3.6,No
2018/09/01,22:50,0.308,0.191,0.310,0.300,0.282,0.153,0.094,north-northeast,3.1,No
2018/09/01,23:00,0.310,0.191,0.308,0.296,0.280,0.153,0.094,north-northeast,3.3,No
2018/09/01,23:10,0.307,0.191,0.311,0.299,0.284,0.152,0.094,north-northeast,1.7,No
2018/09/01,23:20,0.310,0.190,0.307,0.297,0.279,0.154,0.095,north-northeast,1.6,No
2018/09/01,23:30,0.310,0.192,0.310,0.299,0.282,0.152,0.095,north-northeast,2.1,No
2018/09/01,23:40,0.307,0.191,0.309,0.297,0.282,0.154,0.094,north,2.8,No
2018/09/01,23:50,0.309,0.192,0.309,0.298,0.279,0.153,0.094,north,2.3,No
